,,,PA_Meas_PMT16A,,PR_Meas_QMR101_102,,RH_Meas_QMH101,,SR_Meas_QMS101,,TA_Meas_QMH101,,GenWind,,GenWind,
date,time,status,PA,status,PR,status,RH,status,SR,status,TA,status,DirAvg,status,SpdAvg,
2014-04-30, 00:00:05,VALID,1010.02,VALID,0,INVALID,111.603,VALID,0.112112,VALID,23.4992,VALID,26,VALID,0,
2014-04-30, 00:01:05,VALID,1010.04,VALID,0,INVALID,111.595,VALID,0,VALID,23.4797,VALID,26,VALID,0,
2014-04-30, 00:02:05,VALID,1010.01,VALID,0,INVALID,111.626,VALID,0,VALID,23.4797,VALID,26,VALID,0,
2014-04-30, 00:03:05,VALID,1009.99,VALID,0,INVALID,111.626,VALID,0,VALID,23.4602,VALID,26,VALID,0,
2014-04-30, 00:04:05,VALID,1009.97,VALID,0,INVALID,111.679,VALID,0,VALID,23.4407,VALID,26,VALID,0,
2014-04-30, 00:05:05,VALID,1009.94,VALID,0,INVALID,111.656,VALID,0,VALID,23.4212,VALID,26,VALID,0,
2014-04-30, 00:06:05,VALID,1009.94,VALID,0,INVALID,111.672,VALID,0,VALID,23.3823,VALID,26,VALID,0,
2014-04-30, 00:07:05,VALID,1009.93,VALID,0,INVALID,111.694,VALID,0,VALID,23.3415,VALID,26,VALID,0,
2014-04-30, 00:08:05,VALID,1009.95,VALID,0,INVALID,111.702,VALID,0,VALID,23.3238,VALID,27,VALID,0,
2014-04-30, 00:09:05,VALID,1009.93,VALID,0,INVALID,111.687,VALID,0,VALID,23.3026,VALID,27,VALID,0,
2014-04-30, 00:10:05,VALID,1009.91,VALID,0,INVALID,111.679,VALID,0,VALID,23.2831,VALID,26,VALID,0,
2014-04-30, 00:11:05,VALID,1009.9,VALID,0,INVALID,111.687,VALID,0,VALID,23.3043,VALID,26,VALID,0,
2014-04-30, 00:12:05,VALID,1009.89,VALID,0,INVALID,111.672,VALID,0,VALID,23.2654,VALID,26,VALID,0,
2014-04-30, 00:13:05,VALID,1009.89,VALID,0,INVALID,111.672,VALID,0,VALID,23.2459,VALID,26,VALID,0,
2014-04-30, 00:14:05,VALID,1009.86,VALID,0,INVALID,111.672,VALID,0,VALID,23.2459,VALID,26,VALID,0,
2014-04-30, 00:15:05,VALID,1009.86,VALID,0,INVALID,111.694,VALID,0,VALID,23.2069,VALID,26,VALID,0,
2014-04-30, 00:16:05,VALID,1009.85,VALID,0,INVALID,111.694,VALID,0,VALID,23.2069,VALID,26,VALID,0,
2014-04-30, 00:17:05,VALID,1009.84,VALID,0,INVALID,111.664,VALID,0,VALID,23.2069,VALID,26,VALID,0,
2014-04-30, 00:18:05,VALID,1009.85,VALID,0,INVALID,111.664,VALID,0,VALID,23.2051,VALID,27,VALID,0,
2014-04-30, 00:19:05,VALID,1009.83,VALID,0,INVALID,111.633,VALID,0,VALID,23.2459,VALID,27,VALID,0,
2014-04-30, 00:20:05,VALID,1009.85,VALID,0,INVALID,111.603,VALID,0,VALID,23.2654,VALID,27,VALID,0,
2014-04-30, 00:21:05,VALID,1009.84,VALID,0,INVALID,111.603,VALID,0,VALID,23.2459,VALID,27,VALID,0,
2014-04-30, 00:22:05,VALID,1009.82,VALID,0,INVALID,111.595,VALID,0,VALID,23.2654,VALID,27,VALID,0,
2014-04-30, 00:23:05,VALID,1009.82,VALID,0,INVALID,111.588,VALID,0,VALID,23.2654,VALID,27,VALID,0,
2014-04-30, 00:24:05,VALID,1009.81,VALID,0,INVALID,111.58,VALID,0,VALID,23.2459,VALID,26,VALID,0,
2014-04-30, 00:25:05,VALID,1009.81,VALID,0,INVALID,111.542,VALID,0,VALID,23.2654,VALID,27,VALID,0,
2014-04-30, 00:26:05,VALID,1009.77,VALID,0,INVALID,111.534,VALID,0,VALID,23.2654,VALID,26,VALID,0,
2014-04-30, 00:27:05,VALID,1009.75,VALID,0,INVALID,111.504,VALID,0,VALID,23.2848,VALID,27,VALID,0,
2014-04-30, 00:28:05,VALID,1009.71,VALID,0,INVALID,111.481,VALID,0,VALID,23.3043,VALID,26,VALID,0,
2014-04-30, 00:29:05,VALID,1009.69,VALID,0,INVALID,111.496,VALID,0,VALID,23.2848,VALID,27,VALID,0,
2014-04-30, 00:30:05,VALID,1009.67,VALID,0,INVALID,111.496,VALID,0,VALID,23.2848,VALID,27,VALID,0,
2014-04-30, 00:31:05,VALID,1009.65,VALID,0,INVALID,111.489,VALID,0,VALID,23.2654,VALID,27,VALID,0,
2014-04-30, 00:32:05,VALID,1009.64,VALID,0,INVALID,111.504,VALID,0,VALID,23.2654,VALID,26,VALID,0,
2014-04-30, 00:33:05,VALID,1009.65,VALID,0,INVALID,111.45,VALID,0,VALID,23.2848,VALID,26,VALID,0,
2014-04-30, 00:34:05,VALID,1009.64,VALID,0,INVALID,111.458,VALID,0,VALID,23.2848,VALID,27,VALID,0,
2014-04-30, 00:35:05,VALID,1009.63,VALID,0,INVALID,111.458,VALID,0,VALID,23.2848,VALID,27,VALID,0,
2014-04-30, 00:36:05,VALID,1009.58,VALID,0,INVALID,111.473,VALID,0,VALID,23.2848,VALID,27,VALID,0,
2014-04-30, 00:37:05,VALID,1009.58,VALID,0,INVALID,111.473,VALID,0,VALID,23.2848,VALID,26,VALID,0,
2014-04-30, 00:38:05,VALID,1009.57,VALID,0,INVALID,111.473,VALID,0,VALID,23.2848,VALID,27,VALID,0,
2014-04-30, 00:39:05,VALID,1009.55,VALID,0,INVALID,111.496,VALID,0,VALID,23.2654,VALID,27,VALID,0,
2014-04-30, 00:40:05,VALID,1009.51,VALID,0,INVALID,111.496,VALID,0,VALID,23.2654,VALID,26,VALID,0,
2014-04-30, 00:41:05,VALID,1009.53,VALID,0,INVALID,111.496,VALID,0,VALID,23.2654,VALID,26,VALID,0,
2014-04-30, 00:42:05,VALID,1009.52,VALID,0,INVALID,111.511,VALID,0,VALID,23.2654,VALID,26,VALID,0,
2014-04-30, 00:43:04,VALID,1009.51,VALID,0,INVALID,111.542,VALID,0,VALID,23.2459,VALID,27,VALID,0,
2014-04-30, 00:44:04,VALID,1009.51,VALID,0,INVALID,111.534,VALID,0,VALID,23.2459,VALID,26,VALID,0,
2014-04-30, 00:45:04,VALID,1009.5,VALID,0,INVALID,111.527,VALID,0,VALID,23.2246,VALID,27,VALID,0,
2014-04-30, 00:46:04,VALID,1009.5,VALID,0,INVALID,111.519,VALID,0,VALID,23.2459,VALID,26,VALID,0,
2014-04-30, 00:47:04,VALID,1009.5,VALID,0,INVALID,111.496,VALID,0,VALID,23.2459,VALID,27,VALID,0,
2014-04-30, 00:48:04,VALID,1009.52,VALID,0,INVALID,111.511,VALID,0,VALID,23.2459,VALID,27,VALID,0,
2014-04-30, 00:49:04,VALID,1009.5,VALID,0,INVALID,111.527,VALID,0,VALID,23.2264,VALID,27,VALID,0,
2014-04-30, 00:50:04,VALID,1009.51,VALID,0,INVALID,111.572,VALID,0,VALID,23.2264,VALID,27,VALID,0,
2014-04-30, 00:51:04,VALID,1009.52,VALID,0,INVALID,111.58,VALID,0,VALID,23.2069,VALID,27,VALID,0,
2014-04-30, 00:52:04,VALID,1009.54,VALID,0,INVALID,111.588,VALID,0,VALID,23.1874,VALID,27,VALID,0,
2014-04-30, 00:53:04,VALID,1009.56,VALID,0,INVALID,111.557,VALID,0,VALID,23.1874,VALID,27,VALID,0,
2014-04-30, 00:54:04,VALID,1009.53,VALID,0,INVALID,111.557,VALID,0,VALID,23.2069,VALID,27,VALID,0,
2014-04-30, 00:55:04,VALID,1009.53,VALID,0,INVALID,111.55,VALID,0,VALID,23.2069,VALID,27,VALID,0,
2014-04-30, 00:56:04,VALID,1009.55,VALID,0,INVALID,111.55,VALID,0,VALID,23.2264,VALID,27,VALID,0,
2014-04-30, 00:57:04,VALID,1009.53,VALID,0,INVALID,111.534,VALID,0,VALID,23.2264,VALID,27,VALID,0,
2014-04-30, 00:58:04,VALID,1009.49,VALID,0,INVALID,111.557,VALID,0,VALID,23.2282,VALID,27,VALID,0,
2014-04-30, 00:59:04,VALID,1009.48,VALID,0,INVALID,111.557,VALID,0,VALID,23.2087,VALID,27,VALID,0,
2014-04-30, 01:00:04,VALID,1009.45,VALID,0,INVALID,111.55,VALID,0,VALID,23.2069,VALID,27,VALID,0,
2014-04-30, 01:01:04,VALID,1009.44,VALID,0,INVALID,111.534,VALID,0,VALID,23.2069,VALID,27,VALID,0,
2014-04-30, 01:02:04,VALID,1009.44,VALID,0,INVALID,111.511,VALID,0,VALID,23.2069,VALID,27,VALID,0,
2014-04-30, 01:03:04,VALID,1009.44,VALID,0,INVALID,111.511,VALID,0,VALID,23.2264,VALID,27,VALID,0,
2014-04-30, 01:04:04,VALID,1009.43,VALID,0,INVALID,111.504,VALID,0,VALID,23.2459,VALID,27,VALID,0,
2014-04-30, 01:05:04,VALID,1009.43,VALID,0,INVALID,111.504,VALID,0,VALID,23.2459,VALID,27,VALID,0,
2014-04-30, 01:06:04,VALID,1009.41,VALID,0,INVALID,111.473,VALID,0,VALID,23.2459,VALID,27,VALID,0,
2014-04-30, 01:07:04,VALID,1009.4,VALID,0,INVALID,111.481,VALID,0,VALID,23.2459,VALID,27,VALID,0,
2014-04-30, 01:08:04,VALID,1009.42,VALID,0,INVALID,111.489,VALID,0,VALID,23.2459,VALID,27,VALID,0,
2014-04-30, 01:09:04,VALID,1009.39,VALID,0,INVALID,111.481,VALID,0,VALID,23.2459,VALID,27,VALID,0,
2014-04-30, 01:10:04,VALID,1009.37,VALID,0,INVALID,111.504,VALID,0,VALID,23.2476,VALID,27,VALID,0,
2014-04-30, 01:11:04,VALID,1009.33,VALID,0,INVALID,111.527,VALID,0,VALID,23.2264,VALID,27,VALID,0,
2014-04-30, 01:12:04,VALID,1009.29,VALID,0,INVALID,111.542,VALID,0,VALID,23.2264,VALID,27,VALID,0,
2014-04-30, 01:13:04,VALID,1009.27,VALID,0,INVALID,111.557,VALID,0,VALID,23.2069,VALID,27,VALID,0,
2014-04-30, 01:14:04,VALID,1009.22,VALID,0,INVALID,111.527,VALID,0,VALID,23.1874,VALID,27,VALID,0,
2014-04-30, 01:15:04,VALID,1009.2,VALID,0,INVALID,111.557,VALID,0,VALID,23.1874,VALID,27,VALID,0,
2014-04-30, 01:16:04,VALID,1009.19,VALID,0,INVALID,111.534,VALID,0,VALID,23.2087,VALID,27,VALID,0,
2014-04-30, 01:17:04,VALID,1009.17,VALID,0,INVALID,111.572,VALID,0,VALID,23.1874,VALID,27,VALID,0,
2014-04-30, 01:18:04,VALID,1009.15,VALID,0,INVALID,111.557,VALID,0,VALID,23.1485,VALID,27,VALID,0,
2014-04-30, 01:19:04,VALID,1009.13,VALID,0,INVALID,111.595,VALID,0,VALID,23.1485,VALID,27,VALID,0,
2014-04-30, 01:20:04,VALID,1009.14,VALID,0,INVALID,111.572,VALID,0,VALID,23.129,VALID,27,VALID,0,
2014-04-30, 01:21:04,VALID,1009.11,VALID,0,INVALID,111.595,VALID,0,VALID,23.1485,VALID,27,VALID,0,
2014-04-30, 01:22:04,VALID,1009.13,VALID,0,INVALID,111.618,VALID,0,VALID,23.129,VALID,27,VALID,0,
2014-04-30, 01:23:04,VALID,1009.12,VALID,0,INVALID,111.664,VALID,0,VALID,23.09,VALID,27,VALID,0,
2014-04-30, 01:24:04,VALID,1009.12,VALID,0,INVALID,111.656,VALID,0,VALID,23.0705,VALID,27,VALID,0,
2014-04-30, 01:25:04,VALID,1009.11,VALID,0,INVALID,111.672,VALID,0,VALID,23.0705,VALID,27,VALID,0,
2014-04-30, 01:26:04,VALID,1009.13,VALID,0,INVALID,111.656,VALID,0,VALID,23.0723,VALID,27,VALID,0,
2014-04-30, 01:27:04,VALID,1009.09,VALID,0,INVALID,111.649,VALID,0,VALID,23.0705,VALID,27,VALID,0,
2014-04-30, 01:28:04,VALID,1009.07,VALID,0,INVALID,111.626,VALID,0,VALID,23.0705,VALID,27,VALID,0,
2014-04-30, 01:29:04,VALID,1009.04,VALID,0,INVALID,111.595,VALID,0,VALID,23.09,VALID,27,VALID,0,
2014-04-30, 01:30:04,VALID,1009.04,VALID,0,INVALID,111.603,VALID,0,VALID,23.1095,VALID,27,VALID,0,
2014-04-30, 01:31:04,VALID,1008.99,VALID,0,INVALID,111.611,VALID,0,VALID,23.09,VALID,27,VALID,0,
2014-04-30, 01:32:04,VALID,1009,VALID,0,INVALID,111.588,VALID,0,VALID,23.0883,VALID,27,VALID,0,
2014-04-30, 01:33:04,VALID,1008.98,VALID,0,INVALID,111.58,VALID,0,VALID,23.1095,VALID,27,VALID,0,
2014-04-30, 01:34:04,VALID,1008.98,VALID,0,INVALID,111.572,VALID,0,VALID,23.1485,VALID,27,VALID,0,
2014-04-30, 01:35:04,VALID,1009,VALID,0,INVALID,111.565,VALID,0,VALID,23.1679,VALID,27,VALID,0,
2014-04-30, 01:36:04,VALID,1008.98,VALID,0,INVALID,111.534,VALID,0,VALID,23.2069,VALID,27,VALID,0,
2014-04-30, 01:37:04,VALID,1009,VALID,0,INVALID,111.534,VALID,0,VALID,23.2264,VALID,27,VALID,0,
2014-04-30, 01:38:04,VALID,1009,VALID,0,INVALID,111.511,VALID,0,VALID,23.2459,VALID,27,VALID,0,
2014-04-30, 01:39:04,VALID,1009,VALID,0,INVALID,111.542,VALID,0,VALID,23.2654,VALID,27,VALID,0,
2014-04-30, 01:40:04,VALID,1009,VALID,0,INVALID,111.565,VALID,0,VALID,23.2654,VALID,27,VALID,0,
2014-04-30, 01:41:04,VALID,1009,VALID,0,INVALID,111.588,VALID,0,VALID,23.2459,VALID,27,VALID,0,
2014-04-30, 01:42:04,VALID,1009,VALID,0,INVALID,111.603,VALID,0,VALID,23.2654,VALID,27,VALID,0,
2014-04-30, 01:43:04,VALID,1008.98,VALID,0,INVALID,111.618,VALID,0,VALID,23.2459,VALID,27,VALID,0,
2014-04-30, 01:44:04,VALID,1008.96,VALID,0,INVALID,111.626,VALID,0,VALID,23.2654,VALID,27,VALID,0,
2014-04-30, 01:45:04,VALID,1008.95,VALID,0,INVALID,111.626,VALID,0,VALID,23.2654,VALID,27,VALID,0,
2014-04-30, 01:46:04,VALID,1008.95,VALID,0,INVALID,111.656,VALID,0,VALID,23.2848,VALID,27,VALID,0,
2014-04-30, 01:47:04,VALID,1008.96,VALID,0,INVALID,111.664,VALID,0,VALID,23.2459,VALID,27,VALID,0,
2014-04-30, 01:48:04,VALID,1008.93,VALID,0,INVALID,111.672,VALID,0,VALID,23.2459,VALID,27,VALID,0,
2014-04-30, 01:49:04,VALID,1008.93,VALID,0,INVALID,111.71,VALID,0,VALID,23.2654,VALID,27,VALID,0,
2014-04-30, 01:50:04,VALID,1008.93,VALID,0,INVALID,111.694,VALID,0,VALID,23.2654,VALID,27,VALID,0,
2014-04-30, 01:51:04,VALID,1008.92,VALID,0,INVALID,111.694,VALID,0,VALID,23.2654,VALID,27,VALID,0,
2014-04-30, 01:52:04,VALID,1008.92,VALID,0,INVALID,111.679,VALID,0,VALID,23.2848,VALID,26,VALID,0,
2014-04-30, 01:53:04,VALID,1008.92,VALID,0,INVALID,111.702,VALID,0,VALID,23.2848,VALID,27,VALID,0,
2014-04-30, 01:54:04,VALID,1008.94,VALID,0,INVALID,111.717,VALID,0,VALID,23.2654,VALID,26,VALID,0,
2014-04-30, 01:55:04,VALID,1008.93,VALID,0,INVALID,111.702,VALID,0,VALID,23.2636,VALID,27,VALID,0,
2014-04-30, 01:56:04,VALID,1008.94,VALID,0,INVALID,111.694,VALID,0.112112,VALID,23.2654,VALID,27,VALID,0,
2014-04-30, 01:57:04,VALID,1008.93,VALID,0,INVALID,111.71,VALID,0,VALID,23.2848,VALID,27,VALID,0,
2014-04-30, 01:58:04,VALID,1008.92,VALID,0,INVALID,111.71,VALID,0,VALID,23.2654,VALID,27,VALID,0,
2014-04-30, 01:59:04,VALID,1008.93,VALID,0,INVALID,111.694,VALID,0,VALID,23.2636,VALID,27,VALID,0,
2014-04-30, 02:00:04,VALID,1008.9,VALID,0,INVALID,111.702,VALID,0,VALID,23.3061,VALID,27,VALID,0,
2014-04-30, 02:01:04,VALID,1008.92,VALID,0,INVALID,111.687,VALID,0,VALID,23.3238,VALID,27,VALID,0,
2014-04-30, 02:02:04,VALID,1008.93,VALID,0,INVALID,111.687,VALID,0,VALID,23.3433,VALID,27,VALID,0,
2014-04-30, 02:03:04,VALID,1008.94,VALID,0,INVALID,111.672,VALID,0,VALID,23.3628,VALID,27,VALID,0,
2014-04-30, 02:04:04,VALID,1008.91,VALID,0,INVALID,111.694,VALID,0,VALID,23.3628,VALID,27,VALID,0,
2014-04-30, 02:05:04,VALID,1008.93,VALID,0,INVALID,111.71,VALID,0,VALID,23.3823,VALID,27,VALID,0,
2014-04-30, 02:06:04,VALID,1008.94,VALID,0,INVALID,111.702,VALID,0,VALID,23.3628,VALID,27,VALID,0,
2014-04-30, 02:07:04,VALID,1008.94,VALID,0,INVALID,111.717,VALID,0,VALID,23.3628,VALID,27,VALID,0,
2014-04-30, 02:08:04,VALID,1008.95,VALID,0,INVALID,111.733,VALID,0,VALID,23.3823,VALID,27,VALID,0,
2014-04-30, 02:09:04,VALID,1008.97,VALID,0,INVALID,111.71,VALID,0,VALID,23.4017,VALID,27,VALID,0,
2014-04-30, 02:10:04,VALID,1008.95,VALID,0,INVALID,111.717,VALID,0,VALID,23.3805,VALID,27,VALID,0,
2014-04-30, 02:11:04,VALID,1008.94,VALID,0,INVALID,111.74,VALID,0,VALID,23.4212,VALID,27,VALID,0,
2014-04-30, 02:12:04,VALID,1008.96,VALID,0,INVALID,111.755,VALID,0,VALID,23.4212,VALID,27,VALID,0,
2014-04-30, 02:13:04,VALID,1008.94,VALID,0,INVALID,111.755,VALID,0,VALID,23.4212,VALID,27,VALID,0,
2014-04-30, 02:14:04,VALID,1008.94,VALID,0,INVALID,111.763,VALID,0,VALID,23.4602,VALID,27,VALID,0,
2014-04-30, 02:15:04,VALID,1008.93,VALID,0,INVALID,111.771,VALID,0,VALID,23.4602,VALID,27,VALID,0,
2014-04-30, 02:16:04,VALID,1008.93,VALID,0,INVALID,111.771,VALID,0,VALID,23.4407,VALID,27,VALID,0,
2014-04-30, 02:17:04,VALID,1008.92,VALID,0,INVALID,111.786,VALID,0,VALID,23.4602,VALID,27,VALID,0,
2014-04-30, 02:18:04,VALID,1008.9,VALID,0,INVALID,111.801,VALID,0.112112,VALID,23.4389,VALID,27,VALID,0,
2014-04-30, 02:19:04,VALID,1008.91,VALID,0,INVALID,111.778,VALID,0,VALID,23.4407,VALID,27,VALID,0,
2014-04-30, 02:20:04,VALID,1008.86,VALID,0,INVALID,111.763,VALID,0,VALID,23.4407,VALID,27,VALID,0,
2014-04-30, 02:21:04,VALID,1008.84,VALID,0,INVALID,111.763,VALID,0,VALID,23.4407,VALID,27,VALID,0,
2014-04-30, 02:22:04,VALID,1008.84,VALID,0,INVALID,111.786,VALID,0,VALID,23.4212,VALID,27,VALID,0,
2014-04-30, 02:23:04,VALID,1008.82,VALID,0,INVALID,111.771,VALID,0,VALID,23.4212,VALID,27,VALID,0,
2014-04-30, 02:24:04,VALID,1008.86,VALID,0,INVALID,111.74,VALID,0,VALID,23.4017,VALID,27,VALID,0,
2014-04-30, 02:25:04,VALID,1008.85,VALID,0,INVALID,111.755,VALID,0,VALID,23.4017,VALID,27,VALID,0,
2014-04-30, 02:26:04,VALID,1008.88,VALID,0,INVALID,111.755,VALID,0,VALID,23.4017,VALID,27,VALID,0,
2014-04-30, 02:27:04,VALID,1008.86,VALID,0,INVALID,111.763,VALID,0,VALID,23.4017,VALID,27,VALID,0,
2014-04-30, 02:28:04,VALID,1008.84,VALID,0,INVALID,111.771,VALID,0,VALID,23.4017,VALID,27,VALID,0,
2014-04-30, 02:29:04,VALID,1008.81,VALID,0,INVALID,111.763,VALID,0,VALID,23.4035,VALID,27,VALID,0,
2014-04-30, 02:30:04,VALID,1008.82,VALID,0,INVALID,111.794,VALID,0,VALID,23.3628,VALID,27,VALID,0,
2014-04-30, 02:31:04,VALID,1008.82,VALID,0,INVALID,111.794,VALID,0,VALID,23.3433,VALID,27,VALID,0,
2014-04-30, 02:32:04,VALID,1008.8,VALID,0,INVALID,111.786,VALID,0,VALID,23.3238,VALID,27,VALID,0,
2014-04-30, 02:33:04,VALID,1008.81,VALID,0,INVALID,111.771,VALID,0,VALID,23.3238,VALID,27,VALID,0,
2014-04-30, 02:34:04,VALID,1008.81,VALID,0,INVALID,111.771,VALID,0,VALID,23.3238,VALID,27,VALID,0,
2014-04-30, 02:35:04,VALID,1008.83,VALID,0,INVALID,111.771,VALID,0,VALID,23.3238,VALID,27,VALID,0,
2014-04-30, 02:36:04,VALID,1008.83,VALID,0,INVALID,111.755,VALID,0,VALID,23.3645,VALID,27,VALID,0,
2014-04-30, 02:37:04,VALID,1008.81,VALID,0,INVALID,111.778,VALID,0,VALID,23.384,VALID,27,VALID,0,
2014-04-30, 02:38:04,VALID,1008.81,VALID,0,INVALID,111.74,VALID,0,VALID,23.3823,VALID,27,VALID,0,
2014-04-30, 02:39:04,VALID,1008.8,VALID,0,INVALID,111.733,VALID,0,VALID,23.4212,VALID,27,VALID,0,
2014-04-30, 02:40:04,VALID,1008.8,VALID,0,INVALID,111.778,VALID,0,VALID,23.4407,VALID,27,VALID,0,
2014-04-30, 02:41:04,VALID,1008.78,VALID,0,INVALID,111.771,VALID,0,VALID,23.4797,VALID,27,VALID,0,
2014-04-30, 02:42:04,VALID,1008.79,VALID,0,INVALID,111.786,VALID,0,VALID,23.4992,VALID,27,VALID,0,
2014-04-30, 02:43:04,VALID,1008.8,VALID,0,INVALID,111.801,VALID,0,VALID,23.4992,VALID,27,VALID,0,
2014-04-30, 02:44:04,VALID,1008.82,VALID,0,INVALID,111.809,VALID,0,VALID,23.4797,VALID,27,VALID,0,
2014-04-30, 02:45:04,VALID,1008.82,VALID,0,INVALID,111.786,VALID,0,VALID,23.4797,VALID,27,VALID,0,
2014-04-30, 02:46:04,VALID,1008.82,VALID,0,INVALID,111.809,VALID,0,VALID,23.4602,VALID,27,VALID,0,
2014-04-30, 02:47:04,VALID,1008.8,VALID,0,INVALID,111.763,VALID,0,VALID,23.4602,VALID,27,VALID,0,
2014-04-30, 02:48:04,VALID,1008.82,VALID,0,INVALID,111.778,VALID,0,VALID,23.4602,VALID,27,VALID,0,
2014-04-30, 02:49:04,VALID,1008.81,VALID,0,INVALID,111.771,VALID,0,VALID,23.4407,VALID,27,VALID,0,
2014-04-30, 02:50:04,VALID,1008.82,VALID,0,INVALID,111.778,VALID,0,VALID,23.4407,VALID,27,VALID,0,
2014-04-30, 02:51:04,VALID,1008.82,VALID,0,INVALID,111.771,VALID,0,VALID,23.4407,VALID,27,VALID,0,
2014-04-30, 02:52:04,VALID,1008.83,VALID,0,INVALID,111.771,VALID,0,VALID,23.4407,VALID,27,VALID,0,
2014-04-30, 02:53:04,VALID,1008.84,VALID,0,INVALID,111.763,VALID,0,VALID,23.4425,VALID,27,VALID,0,
2014-04-30, 02:54:04,VALID,1008.8,VALID,0,INVALID,111.763,VALID,0,VALID,23.4407,VALID,27,VALID,0,
2014-04-30, 02:55:04,VALID,1008.81,VALID,0,INVALID,111.786,VALID,0,VALID,23.4407,VALID,27,VALID,0,
2014-04-30, 02:56:04,VALID,1008.79,VALID,0,INVALID,111.755,VALID,0.112112,VALID,23.4797,VALID,27,VALID,0,
2014-04-30, 02:57:04,VALID,1008.79,VALID,0,INVALID,111.763,VALID,0,VALID,23.4992,VALID,26,VALID,0,
2014-04-30, 02:58:04,VALID,1008.77,VALID,0,INVALID,111.755,VALID,0,VALID,23.5186,VALID,26,VALID,0,
2014-04-30, 02:59:04,VALID,1008.76,VALID,0,INVALID,111.748,VALID,0.112112,VALID,23.4974,VALID,26,VALID,0,
2014-04-30, 03:00:04,VALID,1008.75,VALID,0,INVALID,111.725,VALID,0.112112,VALID,23.5169,VALID,27,VALID,0,
2014-04-30, 03:01:04,VALID,1008.74,VALID,0,INVALID,111.694,VALID,0.112112,VALID,23.5169,VALID,27,VALID,0,
2014-04-30, 03:02:04,VALID,1008.73,VALID,0,INVALID,111.71,VALID,0.112112,VALID,23.4974,VALID,27,VALID,0,
2014-04-30, 03:03:04,VALID,1008.71,VALID,0,INVALID,111.656,VALID,0.112112,VALID,23.5169,VALID,27,VALID,0,
2014-04-30, 03:04:04,VALID,1008.72,VALID,0,INVALID,111.672,VALID,0.112112,VALID,23.4974,VALID,27,VALID,0,
2014-04-30, 03:05:04,VALID,1008.72,VALID,0,INVALID,111.687,VALID,0.112112,VALID,23.4779,VALID,27,VALID,0,
2014-04-30, 03:06:04,VALID,1008.72,VALID,0,INVALID,111.679,VALID,0,VALID,23.4992,VALID,27,VALID,0,
2014-04-30, 03:07:04,VALID,1008.7,VALID,0,INVALID,111.687,VALID,0,VALID,23.4992,VALID,27,VALID,0,
2014-04-30, 03:08:04,VALID,1008.67,VALID,0,INVALID,111.702,VALID,0.112112,VALID,23.4584,VALID,27,VALID,0,
2014-04-30, 03:09:04,VALID,1008.69,VALID,0,INVALID,111.687,VALID,0,VALID,23.4407,VALID,27,VALID,0,
2014-04-30, 03:10:04,VALID,1008.67,VALID,0,INVALID,111.702,VALID,0.112112,VALID,23.4407,VALID,27,VALID,0,
2014-04-30, 03:11:04,VALID,1008.66,VALID,0,INVALID,111.694,VALID,0,VALID,23.4425,VALID,27,VALID,0,
2014-04-30, 03:12:04,VALID,1008.68,VALID,0,INVALID,111.687,VALID,0,VALID,23.4212,VALID,27,VALID,0,
2014-04-30, 03:13:04,VALID,1008.68,VALID,0,INVALID,111.71,VALID,0,VALID,23.4017,VALID,27,VALID,0,
2014-04-30, 03:14:04,VALID,1008.66,VALID,0,INVALID,111.694,VALID,0,VALID,23.3823,VALID,27,VALID,0,
2014-04-30, 03:15:04,VALID,1008.65,VALID,0,INVALID,111.725,VALID,0,VALID,23.4017,VALID,27,VALID,0,
2014-04-30, 03:16:04,VALID,1008.64,VALID,0,INVALID,111.71,VALID,0,VALID,23.4212,VALID,27,VALID,0,
2014-04-30, 03:17:04,VALID,1008.64,VALID,0,INVALID,111.748,VALID,0,VALID,23.4407,VALID,27,VALID,0,
2014-04-30, 03:18:04,VALID,1008.62,VALID,0,INVALID,111.771,VALID,0,VALID,23.4407,VALID,27,VALID,0,
2014-04-30, 03:19:04,VALID,1008.61,VALID,0,INVALID,111.755,VALID,0,VALID,23.4407,VALID,27,VALID,0,
2014-04-30, 03:20:04,VALID,1008.63,VALID,0,INVALID,111.748,VALID,0,VALID,23.4407,VALID,27,VALID,0,
2014-04-30, 03:21:04,VALID,1008.58,VALID,0,INVALID,111.702,VALID,0,VALID,23.4602,VALID,27,VALID,0,
2014-04-30, 03:22:04,VALID,1008.59,VALID,0,INVALID,111.702,VALID,0,VALID,23.4602,VALID,27,VALID,0,
2014-04-30, 03:23:04,VALID,1008.58,VALID,0,INVALID,111.687,VALID,0,VALID,23.462,VALID,26,VALID,0,
2014-04-30, 03:24:04,VALID,1008.57,VALID,0,INVALID,111.679,VALID,0,VALID,23.4212,VALID,27,VALID,0,
2014-04-30, 03:25:04,VALID,1008.58,VALID,0,INVALID,111.679,VALID,0,VALID,23.4212,VALID,27,VALID,0,
2014-04-30, 03:26:04,VALID,1008.59,VALID,0,INVALID,111.672,VALID,0.112112,VALID,23.4194,VALID,27,VALID,0,
2014-04-30, 03:27:04,VALID,1008.59,VALID,0,INVALID,111.672,VALID,0,VALID,23.4194,VALID,26,VALID,0,
2014-04-30, 03:28:04,VALID,1008.6,VALID,0,INVALID,111.664,VALID,0.112112,VALID,23.4,VALID,27,VALID,0,
2014-04-30, 03:29:04,VALID,1008.6,VALID,0,INVALID,111.679,VALID,0.112112,VALID,23.3805,VALID,27,VALID,0,
2014-04-30, 03:30:04,VALID,1008.63,VALID,0,INVALID,111.679,VALID,0.112112,VALID,23.4,VALID,27,VALID,0,
2014-04-30, 03:31:04,VALID,1008.6,VALID,0,INVALID,111.656,VALID,0.112112,VALID,23.361,VALID,27,VALID,0,
2014-04-30, 03:32:04,VALID,1008.63,VALID,0,INVALID,111.649,VALID,0.112112,VALID,23.361,VALID,27,VALID,0,
2014-04-30, 03:33:04,VALID,1008.63,VALID,0,INVALID,111.626,VALID,0.112112,VALID,23.361,VALID,27,VALID,0,
2014-04-30, 03:34:04,VALID,1008.65,VALID,0,INVALID,111.618,VALID,0.112112,VALID,23.3415,VALID,27,VALID,0,
2014-04-30, 03:35:04,VALID,1008.65,VALID,0,INVALID,111.603,VALID,0.112112,VALID,23.361,VALID,27,VALID,0,
2014-04-30, 03:36:04,VALID,1008.65,VALID,0,INVALID,111.595,VALID,0.112112,VALID,23.3415,VALID,27,VALID,0,
2014-04-30, 03:37:04,VALID,1008.62,VALID,0,INVALID,111.595,VALID,0.112112,VALID,23.361,VALID,27,VALID,0,
2014-04-30, 03:38:04,VALID,1008.64,VALID,0,INVALID,111.595,VALID,0.112112,VALID,23.361,VALID,27,VALID,0,
2014-04-30, 03:39:04,VALID,1008.63,VALID,0,INVALID,111.626,VALID,0.112112,VALID,23.361,VALID,27,VALID,0,
2014-04-30, 03:40:04,VALID,1008.6,VALID,0,INVALID,111.618,VALID,0.112112,VALID,23.361,VALID,27,VALID,0,
2014-04-30, 03:41:04,VALID,1008.59,VALID,0,INVALID,111.603,VALID,0,VALID,23.384,VALID,27,VALID,0,
2014-04-30, 03:42:04,VALID,1008.55,VALID,0,INVALID,111.611,VALID,0,VALID,23.384,VALID,27,VALID,0,
2014-04-30, 03:43:04,VALID,1008.54,VALID,0,INVALID,111.595,VALID,0,VALID,23.3645,VALID,27,VALID,0,
2014-04-30, 03:44:04,VALID,1008.53,VALID,0,INVALID,111.572,VALID,0,VALID,23.3433,VALID,27,VALID,0,
2014-04-30, 03:45:04,VALID,1008.49,VALID,0,INVALID,111.572,VALID,0,VALID,23.3628,VALID,27,VALID,0,
2014-04-30, 03:46:04,VALID,1008.49,VALID,0,INVALID,111.588,VALID,0,VALID,23.3433,VALID,27,VALID,0,
2014-04-30, 03:47:04,VALID,1008.48,VALID,0,INVALID,111.58,VALID,0,VALID,23.3433,VALID,27,VALID,0,
2014-04-30, 03:48:04,VALID,1008.48,VALID,0,INVALID,111.565,VALID,0,VALID,23.3645,VALID,27,VALID,0,
2014-04-30, 03:49:04,VALID,1008.45,VALID,0,INVALID,111.595,VALID,0,VALID,23.3433,VALID,26,VALID,0,
2014-04-30, 03:50:04,VALID,1008.43,VALID,0,INVALID,111.58,VALID,0,VALID,23.3238,VALID,26,VALID,0,
2014-04-30, 03:51:04,VALID,1008.44,VALID,0,INVALID,111.595,VALID,0,VALID,23.3433,VALID,27,VALID,0,
2014-04-30, 03:52:04,VALID,1008.45,VALID,0,INVALID,111.572,VALID,0,VALID,23.384,VALID,27,VALID,0,
2014-04-30, 03:53:04,VALID,1008.45,VALID,0,INVALID,111.618,VALID,0,VALID,23.3628,VALID,27,VALID,0,
2014-04-30, 03:54:04,VALID,1008.46,VALID,0,INVALID,111.633,VALID,0,VALID,23.3823,VALID,27,VALID,0,
2014-04-30, 03:55:04,VALID,1008.45,VALID,0,INVALID,111.649,VALID,0,VALID,23.3628,VALID,27,VALID,0,
2014-04-30, 03:56:04,VALID,1008.45,VALID,0,INVALID,111.649,VALID,0,VALID,23.3433,VALID,27,VALID,0,